EHI
0 0 0 0 0 1 2 1 0 0 0 0 0 0 0 0 0 1 6 14 16 10 4 2 2 1 1 0 0 0 0 0 0 0 0 0 0 0 0 0 0 0 0
2 1 1 1 1 1 2 2 0 0 0 0 0 0 0 0 0 1 5 11 13 11 7 5 5 3 2 1 0 0 0 0 1 1 0 0 0 1 1 1 1 1 0
9 8 6 5 6 6 6 6 5 3 3 3 2 1 0 0 1 2 4 6 8 9 9 10 10 7 4 2 1 0 0 2 3 2 1 0 1 2 2 2 2 1 1
21 21 18 16 17 16 14 13 12 10 9 9 6 3 2 2 2 2 2 2 4 6 9 12 12 9 7 5 3 1 1 3 4 3 2 1 1 2 2 1 1 1 0
30 31 32 30 28 27 23 19 18 16 15 13 8 5 4 4 3 2 0 1 3 6 7 8 9 9 8 6 3 1 1 3 4 3 3 2 1 1 1 0 0 0 0
34 37 38 35 33 33 29 24 22 18 13 11 7 4 3 3 2 1 0 1 3 3 3 3 5 6 6 5 2 1 0 1 2 2 2 1 0 0 0 0 0 0 0
36 38 37 36 34 34 30 23 17 12 8 6 5 4 3 2 1 1 0 0 1 1 1 1 2 3 3 3 2 0 0 0 1 1 1 0 0 0 0 0 0 0 0
33 33 33 33 32 30 24 15 9 6 3 3 4 5 5 3 1 0 0 0 0 0 0 1 1 1 1 1 1 0 0 0 0 0 0 0 0 0 0 0 0 0 0
23 23 24 23 21 19 14 8 5 3 1 1 2 3 3 2 1 0 0 0 0 0 0 0 0 0 0 0 0 0 0 0 0 0 0 0 0 0 0 0 0 0 0
11 12 12 10 8 7 4 3 2 1 0 0 0 1 1 1 1 0 0 0 0 0 0 0 0 0 0 0 0 0 0 0 0 0 0 0 0 0 0 0 0 0 0
3 4 5 3 2 2 1 0 0 0 0 0 0 0 0 0 0 0 0 0 0 0 0 0 0 0 0 0 0 0 0 0 0 0 0 0 0 0 0 0 0 0 0
1 1 1 1 1 1 0 0 0 0 0 0 0 0 0 0 0 0 0 0 0 0 0 0 0 0 0 0 0 0 0 0 0 0 0 0 0 0 0 0 0 0 0
0 0 0 0 0 0 0 0 0 0 0 0 0 0 0 0 0 0 0 0 0 0 0 0 0 0 0 0 0 0 0 0 0 0 0 0 0 0 0 0 0 0 0
0 0 0 0 0 0 0 0 0 0 0 0 0 0 0 0 0 0 0 0 0 0 0 0 0 0 0 0 0 0 0 0 0 0 0 0 0 0 0 0 0 0 0
0 0 0 0 0 0 0 0 0 0 0 0 0 0 0 0 0 0 0 0 0 0 0 0 0 0 0 0 0 0 0 0 0 0 0 0 0 0 0 0 0 0 0
0 0 0 0 0 0 0 0 0 0 0 0 0 0 0 0 0 0 0 0 0 0 0 0 0 0 0 0 0 0 0 0 0 0 0 0 0 0 0 0 0 0 0
0 0 0 0 0 0 0 0 0 0 0 0 0 0 0 0 0 0 0 0 0 0 0 0 0 0 0 0 0 0 0 0 0 0 0 0 0 0 0 0 0 0 0
0 0 0 0 0 0 0 0 0 0 0 0 0 0 0 0 0 0 0 0 0 0 0 0 0 0 0 0 0 0 0 0 0 0 0 0 0 0 0 0 0 0 0
0 0 0 0 0 0 0 0 0 0 0 0 0 0 0 0 0 0 0 0 0 0 0 0 0 0 0 0 0 0 0 0 0 0 0 0 0 0 0 0 0 0 0
0 0 0 0 0 0 0 0 0 0 0 0 0 0 0 0 0 0 0 0 0 0 0 0 0 0 0 0 0 0 0 0 0 0 0 0 0 0 0 0 0 0 0
0 0 0 0 0 0 0 0 0 0 0 0 0 0 0 0 0 0 0 0 0 0 0 0 0 0 0 0 0 0 0 0 0 0 0 0 0 0 0 0 0 0 0
0 0 0 0 0 0 0 0 0 0 0 0 0 0 0 0 0 0 0 0 0 0 0 0 0 0 0 0 0 0 0 0 0 0 0 0 0 0 0 0 0 0 0
0 0 0 0 0 0 0 0 0 0 0 0 0 0 0 0 0 0 0 0 0 0 0 0 0 0 0 0 0 0 0 0 0 0 0 0 0 0 0 0 0 0 0
0 0 0 0 0 0 0 0 0 0 0 0 0 0 0 0 0 0 0 0 0 0 0 0 0 0 0 0 0 0 0 0 0 0 0 0 0 0 0 0 0 0 0
0 0 0 0 0 0 0 0 0 0 0 0 0 0 0 0 0 0 0 0 0 0 0 0 0 0 0 0 0 0 0 0 0 0 0 0 0 0 0 0 0 0 0
0 0 0 0 0 0 0 0 0 0 0 0 0 0 0 0 0 0 0 0 0 0 0 0 0 0 0 0 0 0 0 0 0 0 0 0 0 0 0 0 0 0 0
Wind_Speed
6 5 4 3 5 3 4 5 5 4 5 6 6 6 6 6 5 4 5 9 8 7 8 8 8 8 8 7 7 6 6 5 5 5 4 4 4 4 4 4 4 3 3
5 5 5 4 5 4 4 4 4 4 5 4 5 5 6 6 5 5 4 8 8 7 7 8 8 8 8 7 7 6 5 5 4 4 4 3 3 3 3 3 2 2 1
6 5 5 5 5 4 4 4 4 4 4 4 5 4 5 5 4 4 5 4 7 9 7 5 6 6 7 7 7 6 6 5 4 4 4 3 3 3 3 3 2 2 2
7 6 5 5 4 4 4 3 4 4 4 4 3 3 3 3 4 4 5 4 3 4 7 6 5 5 6 6 6 5 5 5 4 4 4 4 4 4 4 4 3 3 2
7 6 5 3 3 3 3 4 3 4 3 3 3 2 2 2 2 4 3 3 2 2 2 7 6 4 4 4 4 5 5 5 4 4 5 5 5 5 5 4 4 3 2
5 5 4 3 3 3 3 3 3 2 2 2 3 1 1 1 1 1 2 2 1 2 2 1 4 5 4 3 2 2 4 5 5 6 7 7 7 7 6 6 6 5 4
4 4 3 3 3 2 2 3 2 3 2 2 2 3 3 2 1 0 1 1 1 1 1 1 2 1 3 5 2 1 2 3 4 6 7 7 7 8 8 8 8 7 7
1 2 2 2 1 1 1 1 1 1 1 1 3 3 4 4 3 1 1 0 0 0 0 1 1 0 1 1 5 3 4 4 5 6 7 7 7 8 10 11 11 10 10
3 2 2 1 2 1 1 1 2 3 2 2 2 3 3 4 3 3 2 1 1 1 1 1 1 1 0 1 1 5 6 6 5 6 6 7 7 8 10 11 13 13 13
4 4 4 4 3 2 1 1 1 2 2 2 1 1 2 2 1 2 2 2 2 1 2 1 1 2 2 1 3 6 7 7 7 7 8 8 9 10 11 12 13 14 15
6 6 5 5 4 4 4 3 3 2 1 1 1 1 1 1 1 1 1 2 2 1 1 1 1 0 1 1 1 6 7 8 8 9 9 10 10 11 12 13 14 16 17
7 7 7 6 6 5 5 6 6 7 5 5 4 3 2 1 1 1 1 2 2 2 2 1 2 1 1 2 2 6 7 8 8 10 11 11 12 13 14 15 16 17 18
6 8 7 8 7 7 7 7 8 7 7 7 5 4 4 3 2 2 2 2 3 2 3 4 3 2 3 3 2 5 8 7 8 10 12 13 14 15 16 17 18 19 20
8 9 9 10 10 9 8 8 7 7 7 7 7 6 4 4 4 3 3 4 4 4 4 4 2 4 3 5 3 4 10 7 8 11 14 15 16 16 17 18 18 19 20
8 11 11 11 10 10 9 8 7 7 6 6 6 6 4 4 4 4 4 4 5 6 5 2 3 2 4 6 5 8 10 8 9 14 15 16 16 17 17 18 19 20 20
10 10 10 10 10 9 9 8 7 7 6 6 5 6 5 4 4 3 4 4 4 6 7 5 5 6 6 8 8 10 11 10 16 17 16 15 16 17 18 19 20 20 21
10 10 10 10 10 9 8 7 7 6 6 5 5 5 5 5 5 5 4 4 4 5 7 7 6 6 8 10 10 10 11 11 10 11 12 13 15 17 18 19 19 20 20
9 9 9 9 9 8 8 7 7 6 6 6 5 5 5 4 5 5 5 5 5 5 8 9 8 9 10 10 10 11 11 9 10 7 10 14 16 17 17 17 18 18 18
9 9 9 9 8 7 7 7 6 6 6 6 6 6 5 6 6 5 6 6 6 6 6 8 9 8 9 9 10 10 11 9 10 9 9 14 16 16 16 16 16 16 15
9 8 8 8 7 7 7 7 6 6 6 5 5 6 6 7 7 8 6 6 7 8 8 8 8 9 9 9 9 9 9 8 9 10 10 10 10 14 17 17 17 16 14
8 7 7 7 6 6 8 9 7 6 6 6 6 6 6 5 6 7 8 9 9 8 8 8 9 9 9 9 9 8 9 9 10 9 8 9 8 8 9 11 14 13 11
7 7 7 6 7 7 7 8 9 7 6 6 7 7 6 3 3 6 8 9 11 11 11 10 9 10 11 11 9 8 9 9 9 7 9 10 9 8 7 7 1 3 7
6 6 6 6 6 7 5 6 8 9 7 6 7 7 7 6 6 7 7 10 12 13 13 11 11 12 12 10 10 10 9 10 10 10 9 9 8 8 8 5 2 5 8
5 5 5 5 5 7 6 7 11 9 6 6 6 7 7 8 7 9 12 12 11 8 7 8 9 11 11 10 10 10 11 11 11 8 6 8 8 8 9 7 2 5 8
4 4 5 6 5 6 7 8 12 8 6 7 6 6 6 7 7 9 11 11 11 9 6 8 11 13 14 14 11 9 9 8 8 7 5 6 7 9 9 7 4 4 8
4 4 5 5 6 6 6 6 11 8 7 7 6 4 0 4 8 9 11 11 11 10 10 9 8 10 11 11 13 11 8 8 8 6 5 6 7 7 6 6 7 7 6
Wind_Direction
205 196 208 223 238 221 204 229 239 222 236 229 237 235 240 238 238 230 141 153 172 189 197 196 197 199 198 198 197 197 198 201 204 203 205 211 218 221 222 223 225 226 228
203 207 210 213 234 236 242 239 239 235 242 244 238 236 243 233 223 233 204 158 167 180 191 196 198 199 199 196 195 198 196 197 197 197 198 200 205 206 207 207 209 209 209
202 214 223 216 223 224 227 239 232 238 239 236 234 235 241 246 218 226 238 205 177 171 177 184 189 193 197 195 192 192 196 201 201 195 188 183 177 177 178 171 164 154 143
209 218 225 221 215 223 225 232 242 234 228 235 228 229 235 229 229 224 235 233 235 184 160 149 164 181 187 191 192 195 197 196 193 191 186 183 178 169 160 149 142 134 121
215 222 231 225 219 236 240 241 233 247 239 240 231 228 247 240 233 230 243 240 244 256 198 139 141 144 165 180 190 197 200 201 197 201 201 197 188 181 176 169 164 163 164
218 225 229 221 228 233 240 248 240 250 253 236 238 210 259 278 263 258 240 226 231 245 262 188 172 142 135 136 150 198 214 219 220 220 221 218 210 203 201 201 200 204 213
204 219 225 203 219 230 235 238 237 224 227 220 217 210 200 192 194 212 266 257 205 214 209 213 258 233 161 139 116 56 283 266 258 252 247 240 231 223 220 221 222 224 229
160 194 212 187 176 188 177 235 257 242 203 233 250 230 224 204 190 161 155 143 38 312 181 121 67 307 278 222 98 58 5 326 293 280 273 264 255 249 242 237 235 236 238
79 77 72 81 97 119 153 198 220 222 213 205 279 262 250 239 165 148 107 104 119 98 80 73 70 54 16 352 84 70 29 5 342 317 305 295 285 274 265 256 251 248 248
73 73 83 86 87 90 112 161 202 218 200 192 178 355 355 356 263 179 159 127 101 86 73 62 72 70 49 37 71 60 34 16 359 339 323 313 302 290 279 270 265 263 263
71 64 73 83 84 80 79 79 71 58 68 94 109 96 79 50 9 264 221 185 176 159 144 165 146 114 50 3 336 49 18 2 352 342 331 320 312 305 295 286 279 274 272
70 65 67 69 70 69 68 68 69 67 63 65 62 56 51 42 18 349 283 241 239 209 204 227 230 220 239 287 347 29 342 328 329 325 318 311 304 299 294 289 286 283 280
72 66 64 64 65 65 66 67 67 63 62 62 55 49 46 37 14 345 310 288 269 235 210 228 225 245 259 280 291 22 303 294 302 305 304 300 297 294 291 289 286 284 284
69 69 69 68 64 62 63 63 67 64 59 59 56 44 35 32 8 359 339 318 292 266 232 230 231 249 277 291 358 309 289 268 281 292 294 293 292 290 289 287 286 285 284
77 72 70 67 63 60 58 57 58 54 50 45 45 39 23 25 6 359 344 328 314 304 292 235 261 278 293 304 313 294 294 290 289 287 285 285 286 285 285 284 283 282 281
73 73 72 70 67 61 57 55 59 52 53 49 38 30 8 5 359 342 332 324 314 307 305 319 309 314 326 306 291 291 286 277 259 258 263 272 279 281 282 281 280 280 280
74 74 72 70 68 64 59 56 53 47 45 41 28 22 11 355 342 327 320 312 309 311 304 304 306 306 300 294 300 297 292 286 280 241 239 261 273 276 277 278 279 280 280
76 77 77 73 69 66 59 55 50 41 35 30 20 7 354 341 327 314 321 315 315 314 298 304 306 303 302 298 296 295 291 291 294 273 230 249 262 266 270 272 275 276 277
84 81 80 77 71 66 61 54 46 38 28 19 7 355 343 334 323 329 314 313 308 302 300 298 299 305 299 301 302 294 297 297 294 293 251 243 250 254 257 260 264 266 268
83 79 74 71 64 55 48 41 35 27 18 11 359 345 339 340 338 330 313 312 311 307 299 293 296 301 300 306 303 303 306 310 310 309 303 291 267 245 247 249 252 256 260
82 77 71 67 60 54 36 15 5 11 2 355 350 342 345 344 338 326 322 325 316 307 303 300 302 303 308 315 311 315 310 312 307 303 307 300 292 284 277 250 242 248 258
71 65 59 54 48 50 41 8 342 346 347 346 344 339 324 284 323 279 273 286 295 296 305 306 303 303 303 306 313 313 312 309 306 310 308 304 302 300 298 292 201 223 260
64 55 47 41 46 63 37 3 341 322 334 345 338 332 327 346 314 323 306 275 266 253 256 278 289 293 302 310 313 309 307 305 302 305 304 301 306 308 308 310 184 250 268
54 45 35 29 32 63 39 4 334 305 332 336 332 329 327 329 358 343 319 309 307 302 279 269 283 292 299 306 304 296 292 290 288 287 295 301 316 322 317 317 214 238 264
45 32 36 23 19 62 46 5 336 320 339 336 332 334 331 334 26 339 310 307 312 315 289 265 273 277 280 278 278 284 287 292 304 319 330 313 318 322 318 323 326 265 267
30 15 31 22 15 33 60 9 339 325 341 335 332 332 102 337 338 318 308 308 312 319 320 310 282 267 264 258 239 250 278 296 308 314 327 316 316 329 316 316 324 326 319